Location: Hartford
(41.7640°N, 72.6860°W)
Time: 05:31:20
(UTC-04:00)

ISS - All Passes

Search period start: 17 October 2017 00:00
Search period end: 27 October 2017 00:00
Orbit: 401 x 408 km, 51.6° (Epoch: 18 October)

Date Brightness Start Highest point End Pass type
(mag) Time Alt. Az. Time Alt. Az. Time Alt. Az.
17 Oct - 10:25:51 10° SSE 10:27:16 12° SE 10:28:43 10° ESE daylight
17 Oct - 12:00:05 10° WSW 12:03:19 76° NW 12:06:36 10° NE daylight
17 Oct - 13:37:47 10° WNW 13:40:14 19° NNW 13:42:41 10° NNE daylight
17 Oct - 15:15:38 10° NNW 15:17:38 15° N 15:19:38 10° NE daylight
17 Oct - 16:51:52 10° NW 16:54:51 32° NNE 16:57:51 10° E daylight
17 Oct - 18:28:19 10° WNW 18:31:21 36° SW 18:34:24 10° SSE visible
18 Oct - 11:07:53 10° SW 11:11:04 56° SE 11:14:16 10° ENE daylight
18 Oct - 12:44:58 10° W 12:47:44 25° NNW 12:50:31 10° NE daylight
18 Oct - 14:23:07 10° NW 14:25:03 15° N 14:26:58 10° NE daylight
18 Oct - 15:59:43 10° NW 16:02:24 23° NNE 16:05:05 10° ENE daylight
18 Oct - 17:35:52 10° WNW 17:39:09 71° SW 17:42:24 10° SE daylight
19 Oct - 10:16:01 10° SSW 10:18:52 29° SE 10:21:44 10° ENE daylight
19 Oct - 11:52:13 10° W 11:55:16 36° NNW 11:58:20 10° NE daylight
19 Oct - 13:30:24 10° NW 13:32:27 15° N 13:34:30 10° NNE daylight
19 Oct - 15:07:31 10° NNW 15:09:52 18° NNE 15:12:12 10° ENE daylight
19 Oct - 16:43:35 10° NW 16:46:50 62° NNE 16:50:05 10° ESE daylight
19 Oct - 18:20:57 10° W 18:22:59 16° SW 18:25:01 10° S daylight
20 Oct - 09:24:44 10° S 09:26:45 15° SE 09:28:45 10° E daylight
20 Oct - 10:59:39 10° WSW 11:02:53 61° NNW 11:06:07 10° NE daylight
20 Oct - 12:37:32 10° WNW 12:39:51 18° NNW 12:42:12 10° NNE daylight
20 Oct - 14:15:13 10° NNW 14:17:16 15° N 14:19:20 10° NE daylight
20 Oct - 15:51:22 10° NW 15:54:27 37° NNE 15:57:31 10° E daylight
20 Oct - 17:27:58 10° WNW 17:30:51 29° SW 17:33:43 10° SSE daylight
21 Oct - 10:07:19 10° SW 10:10:33 72° SE 10:13:48 10° ENE daylight
21 Oct - 11:44:38 10° WNW 11:47:18 22° NNW 11:49:58 10° NE daylight
21 Oct - 13:22:44 10° NW 13:24:39 14° N 13:26:34 10° NE daylight
21 Oct - 14:59:10 10° NW 15:01:58 25° NNE 15:04:45 10° E daylight
21 Oct - 16:35:24 10° WNW 16:38:38 56° SW 16:41:50 10° SE daylight
22 Oct - 09:15:17 10° SSW 09:18:18 36° SE 09:21:19 10° ENE daylight
22 Oct - 10:51:49 10° W 10:54:47 31° NNW 10:57:46 10° NE daylight
22 Oct - 12:30:02 10° NW 12:32:01 15° N 12:34:00 10° NNE daylight
22 Oct - 14:06:57 10° NNW 14:09:25 19° NNE 14:11:52 10° ENE daylight
22 Oct - 15:43:02 10° NW 15:46:19 76° NE 15:49:35 10° ESE daylight
22 Oct - 17:20:54 10° WSW 17:22:21 12° SW 17:23:48 10° SSW daylight
23 Oct - 08:23:43 10° S 08:26:06 19° SE 08:28:30 10° E daylight
23 Oct - 09:59:10 10° WSW 10:02:20 50° NNW 10:05:32 10° NE daylight
23 Oct - 11:37:10 10° NW 11:39:23 17° N 11:41:36 10° NNE daylight
23 Oct - 13:14:40 10° NNW 13:16:48 16° N 13:18:56 10° NE daylight
23 Oct - 14:50:45 10° NW 14:53:54 43° NNE 14:57:02 10° ESE daylight
23 Oct - 16:27:33 10° W 16:30:13 23° SW 16:32:52 10° S daylight
24 Oct - 09:06:42 10° SW 09:09:57 89° SE 09:13:13 10° NE daylight
24 Oct - 10:44:13 10° WNW 10:46:46 21° NNW 10:49:19 10° NE daylight
24 Oct - 12:22:12 10° NNW 12:24:09 15° N 12:26:05 10° NE daylight
24 Oct - 13:58:31 10° NW 14:01:24 28° NNE 14:04:18 10° E daylight
24 Oct - 15:34:51 10° WNW 15:37:59 44° SW 15:41:06 10° SSE daylight
25 Oct - 08:14:30 10° SSW 08:17:37 45° SE 08:20:45 10° ENE daylight
25 Oct - 09:51:19 10° W 09:54:12 28° NNW 09:57:04 10° NE daylight
25 Oct - 11:29:32 10° NW 11:31:28 15° N 11:33:24 10° NNE daylight
25 Oct - 13:06:17 10° NW 13:08:51 21° NNE 13:11:24 10° ENE daylight
25 Oct - 14:42:23 10° NW 14:45:39 87° SW 14:48:54 10° SE daylight
26 Oct - 07:22:42 10° S 07:25:22 24° SE 07:28:02 10° E daylight
26 Oct - 08:58:34 10° WSW 09:01:41 42° NNW 09:04:48 10° NE daylight
26 Oct - 10:36:40 10° NW 10:38:47 16° N 10:40:54 10° NNE daylight
26 Oct - 12:13:58 10° NNW 12:16:12 17° NNE 12:18:27 10° NE daylight
26 Oct - 13:50:01 10° NW 13:53:14 51° NNE 13:56:26 10° ESE daylight
26 Oct - 15:27:04 10° W 15:29:27 19° SW 15:31:50 10° S daylight
